Regional Weather Roundup
Issued by NWS Charleston, SC

Current Version | Previous Version | Graphics & Text | Print | Product List | Glossary On
Versions: 1 2 3 4 5 6 7 8 9 10 11 12 13 14 15 16 17 18 19 20 21 22 23 24 25 26 27 28 29 30 31 32 33 34 35 36 37 38 39 40 41 42 43 44 45 46 47 48 49 50
000
ASUS42 KCHS 272013
RWRCHS

REGIONAL WEATHER ROUNDUP
NATIONAL WEATHER SERVICE CHARLESTON SC
400 PM EDT WED JUL 27 2016

NOTE: "FAIR" INDICATES FEW OR NO CLOUDS BELOW 12,000 FEET WITH NO
SIGNIFICANT WEATHER AND/OR OBSTRUCTIONS TO VISIBILITY.

NOT ALL STATIONS ARE QUALITY CONTROLLED. USE DATA WITH CAUTION...
ESPECIALLY DEWPOINT OBSERVATIONS.

SCZ027-030-031-034>040-042>050-272100-
...SOUTHEAST SOUTH CAROLINA...

CITY           SKY/WX    TMP DP  RH WIND       PRES   REMARKS
N CHARLESTON   MOSUNNY   96  73  47 SW9       29.98F HX 105
WATERFRONT PRK   N/A     90  78  68 SW8       29.98F HX 104
MOUNT PLEASANT FAIR      93  79  62 S13       29.99F HX 110
JOHNS ISLAND   FAIR      91  79  66 S15       29.99F HX 107
PINOPOLIS        N/A     93  75  55 SW6       29.90F HX 104
MONCKS CORNER  FAIR      91  68  46 SW9       29.98F HX  95
SUMMERVILLE    NOT AVBL
BEAUFORT MCAS  MOSUNNY   97  71  42 MISG      30.00F HX 104
BEAUFORT ARPT  FAIR      95  72  46 SW6       29.99F HX 103
HILTON HEAD IS MOSUNNY  102  73  39 W7G14     30.01F HX 114
WALTERBORO     PTCLDY    95  70  43 SW10      30.00F HX 101
ALLENDALE      FAIR      93  72  49 VRB6      29.98F HX 100

...SOUTHERN MIDLANDS AND PEE DEE...

CITY           SKY/WX    TMP DP  RH WIND       PRES   REMARKS
GEORGETOWN     FAIR      91  77  62 S9        29.98F HX 105
KINGSTREE      FAIR      97  66  36 S9        29.96F HX 100
ORANGEBURG     MOSUNNY   96  72  45 SW15G21   29.98F HX 104
BARNWELL       NOT AVBL
AIKEN          MOCLDY    95  72  46 SW10G16   30.03F HX 103
MANNING        FAIR      93  72  49 SW12G17   29.97F HX 100
COLUMBIA       PTSUNNY   98  70  40 W10       29.95F HX 105
SUMTER         SUNNY     97  73  45 SW9G20    29.94F HX 106
FLORENCE       SUNNY     96  73  47 S8        29.96F HX 105
MYRTLE BEACH   MOSUNNY   91  73  55 S15       29.99F HX 100
N MYRTLE BEACH SUNNY     90  78  68 SW18      29.96F HX 104

$$

GAZ063-065-086>088-099>101-113>116-118-119-134>141-150-272100-
...SOUTHEAST GEORGIA...

CITY           SKY/WX    TMP DP  RH WIND       PRES   REMARKS
SAVANNAH ARPT  MOSUNNY   97  69  40 SW10G22   30.01F HX 103
HUNTER AAF     MOSUNNY   96  77  54 SW9G17    29.99F HX 110
FORT STEWART   NOT AVBL
STATESBORO     SUNNY     96  73  48 SW7       30.01F HX 105
SYLVANIA       NOT AVBL
CLAXTON        FAIR      94  71  47 SW9G16    30.01F HX 101

...CSRA...CENTRAL AND FAR SOUTHEAST GEORGIA...

CITY           SKY/WX    TMP DP  RH WIND       PRES   REMARKS
THOMSON        NOT AVBL
AUGUSTA-BUSH   MOSUNNY   97  68  38 SW9       29.97F HX 102
AUGUSTA-DANIEL PTSUNNY   96  69  41 SW10G17   30.00F HX 102
SWAINSBORO     FAIR      95  70  43 W8G17     30.02F HX 101
VIDALIA        PTSUNNY   95  68  41 W10       30.02F HX  99
EASTMAN        FAIR      94  56  27 W8        30.06F HX  93
HAZLEHURST     FAIR      94  73  48 CALM      30.02F HX 103
ALMA           MOSUNNY   93  70  46 SW10      30.03F HX  99
WAYCROSS       MOSUNNY  100  73  42 W12       30.03F HX 110
JESUP          FAIR      97  73  46 W7        30.03S HX 107
BAXLEY         PTSUNNY   95  73  49 W10G17    30.02F HX 105
BRUNSWICK      PTSUNNY   97  72  44 SW10      30.03F HX 105
SAINT SIMONS   MOSUNNY   90  76  63 S10       30.03F HX 101

$$

SCZ027-028-034-036>038-045-046-048>050-GAZ119-141-272100-
...LAKE AND SUPPLEMENTAL COASTAL OBSERVATIONS...

STATION/POSITION TIME  TEMP    WIND        PRES    WAVE   SWELL
                       AIR SEA DIR/SP/G            HT/PER HT/PER/DIR
                 (UTC) (F)     (DEG/KT/KT) (MB)    (FT/S) (FT/S/D)
WINYAH BAY       NOT AVBL
LAKE MURRAY      1900   93     210/  8/ 12 1014.2F
ACE BASIN NERRS  NOT AVBL
FORT PULASKI     1900   91 87  270/  9/ 12 1017.2F
SAPELO ISLAND    1900   93     250/  8     1017.0F

$$

ANZ835-935-AMZ111-154-330-350-352-354-370-450-454-472-272100-
...C-MAN AND BUOY OBSERVATIONS...

STATION/POSITION TIME  TEMP    WIND        PRES    WAVE   SWELL
                       AIR SEA DIR/SP/G            HT/PER HT/PER/DIR
                 (UTC) (F)     (DEG/KT/KT) (MB)    (FT/S) (FT/S/D)
BUOY 41004       1950   85 87  230/ 14/ 16 1015.8F   3/ 5   2/150/ 8
BUOY 41008       1950   86 87  180/ 10/ 12 1016.7F   1/ 5
FOLLY BEACH CMAN 1900   87     200/ 16/ 18 1016.6F
CAPERS NEARSHORE 1908   85 85  220/ 16/ 21 1016.2F
FRIPP NEARSHORE  1908   87 87  200/ 14/ 17 1016.0F


STATION/POSITION TIME  TEMP    WIND        PRES    WAVE   SWELL
                       AIR SEA DIR/SP/G            HT/PER HT/PER/DIR
                 (UTC) (F)     (DEG/KT/KT) (MB)    (FT/S) (FT/S/D)
5E ST. MARYS GA  2001      87                N/A     1/ 8
FRYING PAN BUOY  1900   85 85  220/ 14/ 16 1015.4F
BUOY 41025       1950   85 85  240/ 10/ 12 1013.5F   3/ 6   2/220/ 6
CAPE LOOKOUT NC  1900   88     220/  9/ 11 1014.0F
BUOY 41002       1950   85 85  260/ 10/ 12 1016.8F   4/ 6   3/280/ 6
BUOY 41010       1920   86 88  280/  2/  4 1018.7F
ST AUGUSTINE FL  2000   84 86  100/ 11/ 12 1018.4F


$$



USA.gov is the U.S. government's official web portal to all federal, state and local government web resources and services.